Seattle, WA
on Wednesday, December 19, 2012

Wednesday
Previous Day Next Day
Daily Summary
 ActualAverageRecord
Temperature
Mean Temperature °F 40°F  
Max Temperature 47°F 45°F 56°F (1969)
Min Temperature 35°F 35°F 17°F (1949)
Degree Days
Heating Degree Days 24 25  
Month to date heating degree days 422 460  
Since 1 July heating degree days 1449 1643  
Cooling Degree Days 0 0  
Month to date cooling degree days 0 0  
Year to date cooling degree days 177 189  
Moisture
Dew Point 33°F   
Average Humidity 75    
Maximum Humidity 89    
Minimum Humidity 60    
Precipitation
Precipitation 0.54 in 0.17 in 1.19 in (1953)
Month to date precipitation 4.93 3.36  
Year to date precipitation 46.34 35.50  
Snow
Snow 0.00 in in 3.30 in (1964)
Month to date snowfall 0.6  
Since 1 July snowfall 0.6  
Snow Depth 0.00 in   
Wind
Wind Speed 13 mph   
Max Wind Speed 28 mph   
Max Gust Speed 38 mph   
Visibility 8 miles   
Events Rain , Snow   

Key: T is trace of precipitation, MM is missing value
Source: NWS Daily Summary
Time(PST)TemperatureDew PointHumidity Pressure Visibility Wind DirectionWind SpeedGust SpeedPrecipitationEvents Conditions
12:53 AM 36.0°F 27.0°F 70% 29.96 in 10.0 miles SE 6.9 mph - N/A   Overcast
1:53 AM 37.0°F 26.1°F 65% 29.94 in 10.0 miles SSE 11.5 mph - N/A   Overcast
2:41 AM 37.4°F 26.6°F 65% 29.89 in 10.0 miles South 11.5 mph 24.2 mph 0.00 in Rain , Snow Light Rain
2:53 AM 37.9°F 27.0°F 65% 29.91 in 10.0 miles South 11.5 mph - 0.00 in Rain , Snow Light Rain
3:53 AM 35.1°F 28.9°F 78% 29.86 in 3.0 miles SSE 13.8 mph 20.7 mph 0.00 in Snow Light Snow
3:56 AM 35.6°F 28.4°F 75% 29.83 in 2.5 miles SSE 12.7 mph - 0.01 in Snow Light Snow
4:06 AM 35.6°F 28.4°F 75% 29.82 in 3.0 miles SSE 13.8 mph - 0.01 in Snow Light Snow
4:53 AM 35.1°F 30.0°F 82% 29.84 in 3.0 miles ESE 9.2 mph - 0.01 in Snow Light Snow
5:41 AM 35.6°F 30.2°F 81% 29.78 in 10.0 miles ESE 6.9 mph - 0.01 in Rain , Snow Light Rain
5:53 AM 36.0°F 30.9°F 82% 29.81 in 10.0 miles ESE 10.4 mph - 0.02 in Rain , Snow Light Rain
6:42 AM 37.4°F 30.2°F 75% 29.76 in 10.0 miles SSE 8.1 mph - 0.00 in   Overcast
6:53 AM 37.9°F 30.9°F 76% 29.79 in 10.0 miles SSE 9.2 mph - 0.00 in Rain Light Rain
7:53 AM 39.9°F 32.0°F 73% 29.77 in 10.0 miles South 15.0 mph - 0.01 in Rain Light Rain
8:33 AM 41.0°F 33.8°F 76% 29.71 in 10.0 miles SSE 15.0 mph - 0.00 in Rain Light Rain
8:53 AM 41.0°F 33.1°F 73% 29.74 in 10.0 miles SSE 10.4 mph - 0.00 in   Overcast
9:53 AM 43.0°F 32.0°F 65% 29.73 in 10.0 miles South 11.5 mph - N/A   Overcast
10:53 AM 44.1°F 33.1°F 65% 29.71 in 10.0 miles South 16.1 mph 32.2 mph N/A   Overcast
11:53 AM 45.0°F 32.0°F 60% 29.68 in 10.0 miles South 20.7 mph 36.8 mph N/A   Overcast
12:53 PM 46.9°F 33.1°F 59% 29.65 in 10.0 miles South 18.4 mph 32.2 mph N/A   Overcast
1:53 PM 46.9°F 34.0°F 61% 29.63 in 10.0 miles South 16.1 mph 26.5 mph 0.00 in   Overcast
2:53 PM 44.1°F 37.9°F 79% 29.67 in 5.0 miles SW 10.4 mph 19.6 mph 0.03 in Rain Rain
3:53 PM 43.0°F 39.0°F 86% 29.67 in 8.0 miles South 4.6 mph - 0.10 in Rain Light Rain
4:39 PM 42.8°F 37.4°F 81% 29.64 in 10.0 miles South 18.4 mph 26.5 mph 0.04 in Rain Light Rain
4:53 PM 42.1°F 37.0°F 82% 29.68 in 8.0 miles South 16.1 mph 23.0 mph 0.06 in Rain Rain
5:20 PM 41.0°F 37.4°F 87% 29.64 in 10.0 miles South 11.5 mph - 0.05 in Rain Light Rain
5:53 PM 42.1°F 37.9°F 85% 29.68 in 10.0 miles South 18.4 mph 24.2 mph 0.06 in Rain Light Rain
6:38 PM 42.8°F 37.4°F 81% 29.66 in 7.0 miles South 16.1 mph 25.3 mph 0.03 in Rain Rain
6:53 PM 41.0°F 37.9°F 89% 29.69 in 9.0 miles South 15.0 mph 25.3 mph 0.05 in Rain Light Rain
7:53 PM 42.1°F 37.0°F 82% 29.68 in 10.0 miles South 19.6 mph 27.6 mph 0.03 in Rain Light Rain
8:53 PM 42.1°F 37.0°F 82% 29.65 in 10.0 miles SSE 16.1 mph - 0.04 in Rain Light Rain
9:53 PM 41.0°F 37.0°F 86% 29.64 in 10.0 miles ESE 11.5 mph - 0.03 in Rain Light Rain
10:30 PM 39.2°F 35.6°F 87% 29.61 in 8.0 miles East 12.7 mph - 0.05 in Rain Rain
10:53 PM 39.9°F 36.0°F 86% 29.62 in 7.0 miles ESE 10.4 mph - 0.08 in Rain Light Rain
11:26 PM 39.2°F 35.6°F 87% 29.57 in 9.0 miles East 9.2 mph - 0.01 in Rain Light Rain
11:53 PM 39.9°F 36.0°F 86% 29.57 in 9.0 miles East 9.2 mph - 0.02 in Rain Light Rain
Moon Phase
Dec. 19 Dec. 20 Dec. 28 Jan. 04 Jan. 11
Sunrise:07:53 AM (PST) Moon Rise:11:37 AM (PST)
Sunset:04:20 PM (PST) Moon Set:No Moon Set/

Copyright © 2014 The Weather Underground, Inc.